Alexandria, LA

6:17 PM CST on February 19, 2018 (GMT -0600)
Alexandria International

Weather History for KAEX - January, 2006

Change the Weather History Date:

Wednesday, January 11, 2006

  Actual Average Record
Temperature  
Mean Temperature 46 °F 49 °F  
Max Temperature 62 °F 59 °F 80 °F (1972)
Min Temperature 30 °F 39 °F 9 °F (1982)
Degree Days  
Heating Degree Days 19 16  
Month to date heating degree days 102 176  
Since 1 July heating degree days 893 965  
Moisture  
Dew Point 34 °F    
Average Humidity 75    
Maximum Humidity 96    
Minimum Humidity 36    
Precipitation  
Precipitation 0.00 in 0.16 in 2.81 in (1901)
Month to date precipitation 0.05 1.64  
Year to date precipitation 0.05 1.64  
Snow  
Snow 0.00 in - 2.00 in (1973)
Month to date snowfall 0.0  
Since 1 July snowfall 0.0  
Snow Depth 0.00 in    
Sea Level Pressure  
Sea Level Pressure 30.14 in    
Wind  
Wind Speed 2 mph (SE)    
Max Wind Speed 9 mph    
Max Gust Speed -    
Visibility 5 miles    
Events Fog    
T = Trace of Precipitation, MM = Missing Value Source: NWS Daily Summary

Daily Weather History Graph

Daily Weather History Graph

Search for Another Location

Airport or City:

Trip Planner

Search our weather history database for the weather conditions in past years. The results will help you decide how hot, cold, wet, or windy it might be!

Date:

Astronomy

Jan. 11, 2006 Rise Set
Actual Time 7:10 AM CST 5:26 PM CST
Civil Twilight 6:43 AM CST 5:52 PM CST
Nautical Twilight 6:13 AM CST 6:22 PM CST
Astronomical Twilight 5:44 AM CST 6:52 PM CST
Moon 2:57 PM CST (1/11) 5:04 AM CST (1/11)
Length of Visible Light 11h 09m
Length of Day
10h 16m
Waxing Gibbous, 93% of the Moon is Illuminated
Jan 11
Waxing Gibbous
Jan 14
Full
Jan 22
Last Quarter
Jan 29
New
Feb 5
First Quarter

Hourly Weather History & Observations

Time (CST) Temp. Windchill Dew Point Humidity Pressure Visibility Wind Dir Wind Speed Gust Speed Precip Events Conditions
12:23 AM 35.6 °F - 32.0 °F 87% 30.19 in 2.5 mi Calm Calm - N/A   Mostly Cloudy
12:26 AM 35.6 °F - 33.8 °F 93% 30.19 in 0.8 mi Calm Calm - N/A   Mist
12:34 AM 33.8 °F - 32.0 °F 93% 30.19 in 0.2 mi Calm Calm - N/A Fog Fog
12:53 AM 33.1 °F - 30.9 °F 92% 30.21 in 0.2 mi Calm Calm - N/A Fog Fog
1:53 AM 33.1 °F - 30.9 °F 92% 30.19 in 0.2 mi Calm Calm - N/A Fog Fog
2:53 AM 32.0 °F - 30.9 °F 96% 30.19 in 0.2 mi Calm Calm - N/A Fog Fog
3:53 AM 30.9 °F - 28.9 °F 92% 30.18 in 0.2 mi Calm Calm - N/A Fog Light Freezing Fog
4:53 AM 30.9 °F - 28.9 °F 92% 30.18 in 0.2 mi Calm Calm - N/A Fog Light Freezing Fog
5:53 AM 30.0 °F 25.2 °F 28.0 °F 92% 30.17 in 0.2 mi SSE 4.6 mph - N/A Fog Light Freezing Fog
6:53 AM 30.9 °F - 28.9 °F 92% 30.17 in 0.2 mi Calm Calm - N/A Fog Light Freezing Fog
7:53 AM 30.9 °F - 30.0 °F 96% 30.21 in 0.2 mi Calm Calm - N/A Fog Light Freezing Fog
8:53 AM 35.1 °F - 34.0 °F 96% 30.22 in 0.2 mi Calm Calm - 0.01 in Fog Fog
9:53 AM 39.9 °F - 37.9 °F 93% 30.24 in 0.2 mi Calm Calm - N/A Fog Fog
10:53 AM 46.9 °F - 42.1 °F 83% 30.22 in 7.0 mi Calm Calm - N/A   Clear
11:53 AM 54.0 °F - 34.0 °F 47% 30.17 in 10.0 mi Variable 4.6 mph - N/A   Clear
12:53 PM 55.9 °F - 34.0 °F 44% 30.13 in 10.0 mi Calm Calm - N/A   Clear
1:53 PM 60.1 °F - 33.1 °F 36% 30.11 in 10.0 mi East 3.5 mph - N/A   Clear
2:53 PM 61.0 °F - 35.1 °F 38% 30.09 in 10.0 mi SE 6.9 mph - N/A   Clear
3:53 PM 62.1 °F - 37.0 °F 39% 30.09 in 10.0 mi ESE 8.1 mph - N/A   Clear
4:53 PM 57.9 °F - 37.9 °F 47% 30.06 in 10.0 mi SE 9.2 mph - N/A   Clear
5:53 PM 51.1 °F - 37.0 °F 59% 30.07 in 10.0 mi ESE 4.6 mph - N/A   Clear
6:53 PM 46.9 °F - 37.0 °F 68% 30.06 in 10.0 mi SE 8.1 mph - N/A   Clear
7:53 PM 46.0 °F 43.9 °F 36.0 °F 68% 30.06 in 10.0 mi SE 4.6 mph - N/A   Clear
8:53 PM 46.9 °F - 36.0 °F 66% 30.07 in 10.0 mi SSE 5.8 mph - N/A   Clear
9:53 PM 42.1 °F 38.4 °F 36.0 °F 79% 30.06 in 10.0 mi SSE 5.8 mph - N/A   Clear
10:53 PM 43.0 °F 40.3 °F 36.0 °F 76% 30.06 in 10.0 mi South 4.6 mph - N/A   Clear
11:53 PM 43.0 °F 38.8 °F 36.0 °F 76% 30.05 in 10.0 mi ESE 6.9 mph - N/A   Clear